Content
SEND FEEDBACK

Daily
Averages
Monthly
Summary
United States of America

MIDWAY, TEXAS


Home > North America > United States > Texas
Elevation: 120 feet     Latitude: 31 05N     Longitude: 095 42W

WEATHER
 
SELECT A DAY
Number of Records: 191,686;   Date Range: 2/3/97 - 11/26/14
 
SHARE

PRINT THIS DATA

[ ← Previous Day ]
WEATHER ALMANAC - FEBRUARY 13, 2013
[ Next Day → ]
[ °C ]   °F
Weather ElementAverageHighLow
Temperature47.2 °F54 °F (1:53 pm)39 °F (10:53 pm)
Dewpoint37.4 °F42.8 °F (1:03 am)35.1 °F (6:53 am)
Humidity69.7 %86 % (8:53 pm)55 % (1:53 pm)
Barometer30.09 in30.14 in (8:53 am)30.02 in (1:03 am)
Wind Speed6.5 mph12.7 mph (4:53 am)
Wind Gust21.9 mph (3:53 am)
Weather ElementAverage
Visibility10 mi
Wind DirectionSW (220.6 °)

Weather ElementTotal
Precipitation---
Heating Degree Days18.5 (Base 65)
Averaged from 31 records on February 13, 2013
WEATHER CONDITIONS BREAKOUT
WIND DIRECTION BREAKOUT
WEATHER BY HOUR - FEBRUARY 13, 2013
[ °C ]   °F
Local TimeTemperatureDewpointHumidityBarometerVisibilityWind DirectionWind SpeedGust SpeedPrecipitationEventsConditions
1:03 AM48.2 °F42.8 °F82 %30.02 in10.0 miNW (310°)8.1 mph16.1 mphMostly Cloudy
1:53 AM48.9 °F42.1 °F77 %30.03 in10.0 miNW (310°)9.2 mph18.4 mphOvercast
2:53 AM48.0 °F39.0 °F71 %30.04 in10.0 miNW (310°)8.1 mph17.3 mphOvercast
3:07 AM48.2 °F39.2 °F71 %30.06 in10.0 miNW (310°)8.1 mphOvercast
3:53 AM46.0 °F37.0 °F71 %30.05 in10.0 miNNW (340°)11.5 mph21.9 mphOvercast
4:53 AM45.0 °F36.0 °F71 %30.05 in10.0 miNNW (340°)12.7 mph18.4 mphOvercast
5:53 AM44.1 °F36.0 °F73 %30.08 in10.0 miNNW (330°)6.9 mphOvercast
6:53 AM43.0 °F35.1 °F74 %30.11 in10.0 miNW (320°)9.2 mphOvercast
7:17 AM42.8 °F35.6 °F76 %30.11 in10.0 miNW (320°)5.8 mphScattered Clouds
7:53 AM42.1 °F35.1 °F76 %30.13 in10.0 miNW (320°)5.8 mphClear
8:14 AM42.8 °F35.6 °F76 %30.13 in10.0 miNNW (330°)9.2 mphMostly Cloudy
8:53 AM44.1 °F36.0 °F73 %30.14 in10.0 miNNW (330°)6.9 mphOvercast
9:53 AM46.9 °F37.0 °F68 %30.14 in10.0 miNNW (340°)8.1 mph17.3 mphOvercast
10:53 AM48.0 °F37.0 °F66 %30.14 in10.0 miNNW (330°)11.5 mphMostly Cloudy
11:28 AM48.2 °F37.4 °F66 %30.13 in10.0 miVariable6.9 mphScattered Clouds
11:53 AM50.0 °F37.9 °F63 %30.13 in10.0 miNW (310°)10.4 mphMostly Cloudy
12:12 PM51.8 °F37.4 °F58 %30.13 in10.0 miNNW (340°)6.9 mphScattered Clouds
12:23 PM51.8 °F37.4 °F58 %30.12 in10.0 miNNW (330°)9.2 mph17.3 mphMostly Cloudy
12:32 PM51.8 °F37.4 °F58 %30.12 in10.0 miNW (320°)9.2 mphScattered Clouds
12:53 PM52.0 °F37.9 °F59 %30.10 in10.0 miNorth (10°)8.1 mphPartly Cloudy
1:53 PM54.0 °F37.9 °F55 %30.08 in10.0 miNNW (340°)6.9 mph16.1 mphClear
2:53 PM54.0 °F37.9 °F55 %30.07 in10.0 miVariable6.9 mphPartly Cloudy
3:53 PM54.0 °F37.9 °F55 %30.06 in10.0 miNW (320°)6.9 mphClear
4:53 PM54.0 °F37.9 °F55 %30.06 in10.0 miNNW (330°)5.8 mphClear
5:53 PM51.1 °F39.0 °F63 %30.06 in10.0 miVariable3.5 mphClear
6:53 PM46.9 °F37.9 °F71 %30.07 in10.0 miCalmClear
7:53 PM43.0 °F37.9 °F82 %30.09 in10.0 miCalmClear
8:53 PM41.0 °F37.0 °F86 %30.10 in10.0 miCalmClear
9:53 PM42.1 °F36.0 °F79 %30.10 in10.0 miCalmClear
10:53 PM39.0 °F35.1 °F86 %30.10 in10.0 miCalmClear
11:53 PM39.0 °F35.1 °F86 %30.10 in10.0 miCalmClear
Hourly data recorded from KUTS, located miles away from Midway, Texas







STORIES FROM OUR PARTNERS